[[{"header":{"parameterUnit":"m.s-1","parameterCategory":2,"la1":30.2991,"la2":30.254,"lo1":-89.0895,"lo2":-89.0444,"dy":0.0017,"dx":0.0017,"nx":28,"ny":28,"refTime":"2025-05-31T21:00:00:Z","depth":"0","parameterNumber":2,"parameterNumberName":"U-component_of_CURRENTS"},"data":[0,0,0,0,0,0,0,0,0,0,0,0,0,0,0,0,0,0,0,0,0,0,0,0,0,0,0,0,0,0,0,0,0,0,0,0,0,0,0,0,0,0,0,0,0,0,0,0,0,0,0,0,0,0,0,0,0,0,-0.2919,-0.292,0,-0.2935,-0.2935,-0.2934,-0.2866,-0.2865,-0.2864,-0.2863,-0.2743,-0.2741,-0.2738,0,0,0,0,0,0,0,0,0,0,0,0,0,-0.2551,-0.2559,-0.2919,-0.292,-0.2921,-0.2935,-0.2935,-0.2934,-0.2867,-0.2865,-0.2864,-0.2862,-0.2743,-0.2741,-0.2738,0,0,0,0,0,0,0,0,0,0,0,0,0,-0.2646,-0.2562,-0.2919,-0.2896,-0.2895,-0.2936,-0.2935,-0.2934,-0.2867,-0.2865,-0.2863,-0.2862,-0.2744,-0.2741,-0.2738,-0.2753,0,0,-0.2728,-0.2727,0,0,0,0,0,0,0,0,-0.2641,-0.2658,-0.2898,-0.2898,-0.2896,-0.2905,-0.2761,-0.287,-0.2867,-0.2868,-0.2863,-0.2861,-0.2791,-0.2784,-0.278,-0.2748,-0.2743,-0.2728,-0.2726,-0.2725,-0.2724,0,0,0,0,0,0,0,-0.2635,-0.2656,-0.2916,-0.29,-0.2899,-0.279,-0.2803,-0.278,-0.283,-0.2868,-0.2865,-0.2882,-0.2788,-0.2784,-0.2777,-0.2741,-0.2728,-0.2725,-0.2723,-0.2722,-0.2736,-0.2738,0,0,0,0,0,0,-0.267,-0.2653,-0.2916,-0.2918,-0.2772,-0.28,-0.2814,-0.2897,-0.2833,-0.2825,-0.2883,-0.2879,-0.279,-0.2781,-0.2772,-0.2807,-0.2725,-0.2722,-0.272,-0.2734,-0.2737,-0.2739,0,0,0,0,0,0,-0.2663,-0.2696,-0.2915,-0.2786,-0.2808,-0.2811,-0.2902,-0.2898,-0.2888,-0.2848,-0.2835,-0.2878,-0.2788,-0.2777,-0.2756,-0.2801,-0.272,-0.2717,-0.2731,-0.2735,-0.2738,-0.2864,0,0,0,0,0,0,-0.2653,-0.2695,-0.2737,-0.2793,-0.2818,-0.2949,-0.2905,-0.29,-0.2905,-0.2899,-0.2839,-0.2827,-0.2786,-0.2761,-0.2752,-0.2795,-0.2715,-0.2728,-0.2733,-0.2737,-0.2857,-0.2871,-0.2883,0,0,0,0,0,-0.2641,-0.271,-0.2741,-0.277,-0.2889,-0.2951,-0.2953,-0.2937,-0.2907,-0.2916,-0.2873,-0.2828,-0.2783,-0.276,-0.2749,-0.2792,-0.2726,-0.2731,-0.2736,-0.2851,-0.2868,-0.2883,0,0,0,0,0,0,-0.2537,-0.2714,-0.2746,-0.2858,-0.2908,-0.2943,-0.2946,-0.2944,-0.2919,-0.2902,-0.2845,-0.2832,-0.2838,-0.2798,-0.2774,-0.2812,-0.2752,-0.2756,-0.2843,-0.2859,-0.2872,-0.2867,-0.2712,0,0,0,0,0,-0.2553,-0.2656,-0.2781,-0.2846,-0.2898,-0.2923,-0.2935,-0.2943,-0.2944,-0.293,-0.2893,-0.286,-0.2856,-0.284,-0.2822,-0.2832,-0.2791,-0.2857,-0.2871,-0.2882,-0.2874,-0.2885,-0.2898,-0.2756,-0.2756,-0.2756,0,0,-0.2503,-0.2626,-0.2665,-0.283,-0.2867,-0.2943,-0.2923,-0.2966,-0.2997,-0.2921,-0.2922,-0.2902,-0.2869,-0.2888,-0.2888,-0.2855,-0.2899,-0.2889,-0.2899,-0.2883,-0.2892,-0.2905,-0.2917,-0.2759,-0.2759,-0.2758,0,0,-0.2465,-0.2604,-0.2677,-0.2773,-0.2885,-0.2926,-0.2949,-0.3012,-0.3014,-0.3031,-0.2997,-0.3003,-0.297,-0.2975,-0.2969,-0.3045,-0.2973,-0.3043,-0.3099,-0.3112,-0.3123,-0.3132,-0.3086,-0.309,-0.3046,-0.3046,-0.3046,0,-0.2396,-0.2558,-0.2682,-0.28,-0.2874,-0.2932,-0.3007,-0.3037,-0.3062,-0.3075,-0.3041,-0.3046,-0.3018,-0.3065,-0.309,-0.3076,-0.3043,-0.3041,-0.3129,-0.3137,-0.3145,-0.3095,-0.3098,-0.3053,-0.3052,-0.3051,-0.305,0,-0.2412,-0.2573,-0.2627,-0.2822,-0.2898,-0.2983,-0.3089,-0.3123,-0.3131,-0.3155,-0.3193,-0.3172,-0.3169,-0.3186,-0.3151,-0.3211,-0.3156,-0.3149,-0.3086,-0.3167,-0.3108,-0.311,-0.3062,-0.306,-0.3058,-0.3056,0,0,-0.2245,-0.2574,-0.2603,-0.2738,-0.2945,-0.3015,-0.3096,-0.3197,-0.3237,-0.3262,-0.3293,-0.3323,-0.331,-0.3303,-0.3289,-0.3301,-0.3326,-0.3244,-0.3241,-0.3193,-0.3306,-0.3005,-0.2976,-0.3334,-0.3335,-0.3336,-0.3239,0,-0.2232,-0.246,-0.2613,-0.2802,-0.2958,-0.3085,-0.3159,-0.3248,-0.3289,-0.3328,-0.3353,-0.3372,-0.336,-0.3354,-0.3378,-0.3333,-0.3336,-0.335,-0.3238,-0.3233,-0.2953,-0.297,-0.2809,-0.2685,-0.3239,-0.3239,-0.3239,0,-0.2218,-0.242,-0.2604,-0.2907,-0.297,-0.305,-0.3208,-0.328,-0.337,-0.3392,-0.3434,-0.3435,-0.3464,-0.3433,-0.3421,-0.3425,-0.3372,-0.3339,-0.3335,-0.3004,-0.2933,-0.2698,-0.2665,-0.2642,-0.324,-0.324,-0.324,0,-0.2086,-0.2417,-0.2568,-0.2682,-0.2992,-0.3056,-0.3159,-0.3284,-0.3342,-0.3418,-0.3428,-0.3487,-0.3466,-0.3463,-0.3377,-0.3405,-0.3319,-0.3353,-0.304,-0.3017,-0.2827,-0.2782,-0.2748,-0.3345,-0.3345,-0.3346,-0.3346,0,-0.2066,-0.2212,-0.2535,-0.2644,-0.283,-0.3019,-0.3131,-0.3236,-0.3327,-0.3377,-0.3441,-0.3455,-0.3471,-0.3419,-0.3378,-0.316,-0.332,-0.3021,-0.2968,-0.2859,-0.2821,-0.2743,-0.2811,-0.3342,-0.3343,-0.3344,-0.3344,0,-0.1948,-0.2129,-0.2393,-0.2717,-0.2795,-0.2933,-0.3133,-0.3194,-0.3282,-0.3331,-0.3344,-0.3407,-0.3309,-0.3262,-0.3205,-0.309,-0.2881,-0.2861,-0.268,-0.2603,-0.223,-0.2309,-0.219,-0.2134,-0.2494,-0.2486,-0.2479,0,-0.1914,-0.2025,-0.2421,-0.2554,-0.2711,-0.2908,-0.3,-0.3152,-0.3199,-0.3293,-0.3287,-0.3224,-0.315,-0.2908,-0.2689,-0.2478,-0.2578,-0.2202,-0.2217,-0.2142,-0.22,-0.2295,-0.227,-0.2041,-0.2031,-0.2023,-0.2017,0,-0.1919,-0.2048,-0.2291,-0.2538,-0.2693,-0.2855,-0.2983,-0.3013,-0.3137,-0.3145,-0.3112,-0.306,-0.2777,-0.2436,-0.2115,-0.2023,-0.2117,-0.2016,-0.2045,-0.189,-0.1898,-0.1838,-0.2155,-0.1945,-0.1952,-0.1957,-0.1961,-0.1964,-0.1927,-0.2108,-0.2369,-0.2582,-0.2711,-0.2768,-0.2789,-0.2863,-0.2883,-0.277,-0.283,-0.2519,-0.2153,-0.1649,-0.1615,-0.1314,-0.1525,-0.1265,-0.1383,-0.1497,-0.1386,-0.1458,-0.111,-0.1112,-0.1114,-0.1116,-0.1117,0,-0.201,-0.2168,-0.2365,-0.2598,-0.2612,-0.2693,-0.2737,-0.2654,-0.2574,-0.2369,-0.2207,-0.1558,-0.1265,-0.1044,-0.0748,-0.0725,-0.0848,-0.0767,-0.098,-0.0998,-0.1134,-0.1051,-0.0543,-0.0543,-0.0543,-0.0543,-0.0544,-0.0544,-0.2057,-0.2272,-0.2372,-0.2434,-0.2492,-0.2414,-0.2374,-0.2219,-0.2008,-0.1503,-0.1017,-0.0736,-0.0529,-0.051,-0.0507,-0.0528,-0.0661,-0.0597,-0.0721,-0.0932,-0.0994,-0.1053,-0.0989,-0.0477,-0.0477,-0.0535,-0.0536,-0.0536]},{"header":{"parameterUnit":"m.s-1","parameterCategory":2,"la1":30.2991,"la2":30.254,"lo1":-89.0895,"lo2":-89.0444,"dy":0.0017,"dx":0.0017,"nx":28,"ny":28,"refTime":"2025-05-31T21:00:00:Z","depth":"0","parameterNumber":3,"parameterNumberName":"V-component_of_CURRENTS"},"data":[0,0,0,0,0,0,0,0,0,0,0,0,0,0,0,0,0,0,0,0,0,0,0,0,0,0,0,0,0,0,0,0,0,0,0,0,0,0,0,0,0,0,0,0,0,0,0,0,0,0,0,0,0,0,0,0,0,0,-0.0266,-0.0267,0,-0.0286,-0.0286,-0.0287,-0.0264,-0.0263,-0.0262,-0.0262,-0.0212,-0.0211,-0.021,0,0,0,0,0,0,0,0,0,0,0,0,0,-0.0253,-0.0252,-0.0266,-0.0267,-0.0267,-0.0286,-0.0286,-0.0287,-0.0264,-0.0263,-0.0262,-0.0261,-0.0212,-0.0211,-0.021,0,0,0,0,0,0,0,0,0,0,0,0,0,-0.0263,-0.0252,-0.0266,-0.0259,-0.0259,-0.0286,-0.0286,-0.0287,-0.0264,-0.0263,-0.0262,-0.0261,-0.0212,-0.0211,-0.021,-0.0225,0,0,-0.0207,-0.0206,0,0,0,0,0,0,0,0,-0.0262,-0.0263,-0.026,-0.026,-0.0259,-0.0273,-0.0263,-0.0263,-0.0264,-0.0261,-0.0262,-0.0261,-0.0227,-0.0225,-0.023,-0.0223,-0.0221,-0.0207,-0.0206,-0.0206,-0.0205,0,0,0,0,0,0,0,-0.0261,-0.0262,-0.0273,-0.026,-0.026,-0.0271,-0.027,-0.0264,-0.0247,-0.0261,-0.026,-0.0265,-0.0226,-0.0231,-0.0228,-0.022,-0.0207,-0.0206,-0.0205,-0.0205,-0.0182,-0.0182,0,0,0,0,0,0,-0.0261,-0.0261,-0.0272,-0.0273,-0.026,-0.0272,-0.0271,-0.0268,-0.0249,-0.0246,-0.0266,-0.0264,-0.0233,-0.023,-0.0226,-0.0244,-0.0206,-0.0205,-0.0204,-0.0182,-0.0182,-0.0182,0,0,0,0,0,0,-0.026,-0.0261,-0.0271,-0.027,-0.0272,-0.0273,-0.027,-0.0269,-0.0269,-0.0253,-0.0248,-0.0265,-0.0232,-0.0228,-0.0221,-0.0241,-0.0204,-0.0203,-0.0182,-0.0182,-0.0182,-0.0278,0,0,0,0,0,0,-0.026,-0.0261,-0.0262,-0.0269,-0.0272,-0.0295,-0.0271,-0.0271,-0.0275,-0.0272,-0.0252,-0.0246,-0.0231,-0.0223,-0.022,-0.0239,-0.0203,-0.0182,-0.0182,-0.0182,-0.0275,-0.0281,-0.0286,0,0,0,0,0,-0.0259,-0.0269,-0.0262,-0.0263,-0.0272,-0.0296,-0.0299,-0.0295,-0.0276,-0.0287,-0.0267,-0.0246,-0.022,-0.0223,-0.0219,-0.0239,-0.0182,-0.0182,-0.0182,-0.0272,-0.028,-0.0286,0,0,0,0,0,0,-0.0277,-0.0268,-0.026,-0.027,-0.0284,-0.0293,-0.0302,-0.0297,-0.0291,-0.0281,-0.0256,-0.0251,-0.0249,-0.0225,-0.0228,-0.0227,-0.0194,-0.0193,-0.0263,-0.027,-0.0276,-0.0325,-0.0202,0,0,0,0,0,-0.0279,-0.0278,-0.0281,-0.0294,-0.0294,-0.0296,-0.0304,-0.0304,-0.0301,-0.0297,-0.0284,-0.026,-0.0249,-0.0244,-0.0229,-0.0237,-0.0221,-0.024,-0.0246,-0.0252,-0.0287,-0.0281,-0.0291,-0.0182,-0.0182,-0.0182,0,0,-0.0298,-0.0289,-0.0293,-0.0298,-0.0301,-0.0342,-0.0298,-0.0314,-0.0357,-0.0292,-0.0328,-0.0283,-0.0253,-0.0261,-0.0258,-0.0245,-0.0267,-0.0252,-0.0257,-0.029,-0.0282,-0.0294,-0.0303,-0.0182,-0.0182,-0.0182,0,0,-0.0343,-0.0316,-0.0335,-0.0354,-0.0362,-0.0368,-0.0373,-0.0379,-0.0381,-0.0403,-0.0363,-0.0333,-0.0322,-0.031,-0.03,-0.0327,-0.0296,-0.0307,-0.0388,-0.0382,-0.0392,-0.0401,-0.0371,-0.0376,-0.0314,-0.0315,-0.0315,0,-0.0366,-0.0403,-0.0351,-0.039,-0.0432,-0.0385,-0.0453,-0.0451,-0.046,-0.0474,-0.0424,-0.04,-0.0354,-0.0382,-0.0381,-0.0346,-0.0331,-0.0369,-0.0394,-0.0403,-0.041,-0.0377,-0.0382,-0.0319,-0.0319,-0.0318,-0.0318,0,-0.0437,-0.0482,-0.0499,-0.0534,-0.0557,-0.0611,-0.0607,-0.0618,-0.0597,-0.0598,-0.0599,-0.0526,-0.0516,-0.0479,-0.044,-0.0469,-0.0435,-0.0402,-0.0387,-0.0428,-0.0389,-0.0393,-0.0326,-0.0324,-0.0323,-0.0322,0,0,-0.0465,-0.0541,-0.055,-0.0624,-0.0653,-0.0692,-0.0736,-0.0785,-0.0828,-0.0779,-0.0834,-0.0761,-0.0696,-0.0679,-0.0606,-0.0587,-0.059,-0.0525,-0.0522,-0.0516,-0.057,-0.0368,-0.0351,-0.0569,-0.0571,-0.0572,-0.0514,0,-0.0556,-0.0694,-0.0686,-0.0835,-0.0924,-0.0904,-0.0962,-0.0982,-0.0967,-0.0993,-0.09,-0.09,-0.0782,-0.0758,-0.0725,-0.0639,-0.0609,-0.0609,-0.0515,-0.0512,-0.0345,-0.0352,-0.0233,-0.0156,-0.0517,-0.0517,-0.0518,0,-0.0624,-0.0734,-0.0905,-0.1039,-0.1064,-0.1126,-0.1213,-0.1253,-0.1248,-0.1222,-0.1183,-0.1105,-0.106,-0.094,-0.0832,-0.0842,-0.0721,-0.0634,-0.0629,-0.0421,-0.0317,-0.0176,-0.0148,-0.0009,-0.0522,-0.0522,-0.0522,0,-0.0706,-0.0869,-0.103,-0.1086,-0.1219,-0.1273,-0.1312,-0.1331,-0.1365,-0.1359,-0.1362,-0.1296,-0.1245,-0.1125,-0.0889,-0.0887,-0.0749,-0.0725,-0.043,-0.0413,-0.0284,-0.0252,-0.0131,-0.0652,-0.0652,-0.0652,-0.0653,0,-0.0808,-0.0929,-0.1091,-0.1193,-0.1371,-0.1389,-0.151,-0.1523,-0.1533,-0.1574,-0.1478,-0.1465,-0.1289,-0.116,-0.0969,-0.0684,-0.0803,-0.0452,-0.0389,-0.0304,-0.0276,-0.0123,-0.0107,-0.065,-0.0651,-0.0651,-0.0652,0,-0.0871,-0.0958,-0.1186,-0.1381,-0.142,-0.1552,-0.1623,-0.169,-0.1676,-0.1722,-0.1717,-0.1613,-0.1417,-0.1186,-0.0964,-0.0756,-0.0395,-0.0384,-0.0267,-0.019,0.0218,0.0223,0.0369,0.0498,-0.0101,-0.0096,-0.0091,0,-0.0908,-0.1041,-0.1341,-0.1448,-0.1537,-0.1685,-0.1754,-0.1766,-0.1806,-0.1788,-0.1807,-0.164,-0.1441,-0.1018,-0.0652,-0.0272,-0.0173,0.0056,0.0096,0.0261,0.0309,0.029,0.0384,0.0225,0.0231,0.0237,0.0241,0,-0.1052,-0.1175,-0.1387,-0.1614,-0.1735,-0.1864,-0.1943,-0.1972,-0.1962,-0.1916,-0.1803,-0.1635,-0.1212,-0.0702,-0.0193,0.0026,0.0185,0.0185,0.0295,0.0531,0.0569,0.0718,0.0171,0.029,0.0285,0.0282,0.0279,0.0277,-0.1157,-0.1359,-0.1615,-0.1802,-0.1922,-0.1993,-0.1987,-0.1968,-0.1925,-0.1663,-0.1664,-0.1163,-0.0667,0.009,0.0255,0.0728,0.0606,0.0888,0.0866,0.082,0.0995,0.0595,0.0836,0.0835,0.0833,0.0832,0.0831,0,-0.1332,-0.1526,-0.1738,-0.1953,-0.2037,-0.2064,-0.2065,-0.191,-0.1704,-0.1342,-0.1041,-0.024,0.0295,0.071,0.1239,0.1405,0.1376,0.1465,0.141,0.1465,0.1069,0.1141,0.1533,0.1533,0.1533,0.1533,0.1533,0.1533,-0.1413,-0.1706,-0.1827,-0.2003,-0.2067,-0.2019,-0.1947,-0.1612,-0.1246,-0.0454,0.0202,0.0625,0.1071,0.1469,0.182,0.185,0.1936,0.1919,0.1957,0.1626,0.1568,0.1512,0.1587,0.2066,0.2067,0.2388,0.2391,0.2393]}],[{"header":{"parameterUnit":"m.s-1","parameterCategory":2,"la1":30.2991,"la2":30.254,"lo1":-89.0895,"lo2":-89.0444,"dy":0.0017,"dx":0.0017,"nx":28,"ny":28,"refTime":"2025-05-31T21:00:00:Z","depth":"2","parameterNumber":2,"parameterNumberName":"U-component_of_CURRENTS"},"data":[0,0,0,0,0,0,0,0,0,0,0,0,0,0,0,0,0,0,0,0,0,0,0,0,0,0,0,0,0,0,0,0,0,0,0,0,0,0,0,0,0,0,0,0,0,0,0,0,0,0,0,0,0,0,0,0,0,0,-0.1969,-0.197,0,-0.2032,-0.2033,-0.2034,-0.2075,-0.2075,-0.2075,-0.2075,-0.2242,-0.2247,-0.2251,0,0,0,0,0,0,0,0,0,0,0,0,0,-0.1939,-0.1939,-0.1969,-0.197,-0.197,-0.2032,-0.2033,-0.2034,-0.2075,-0.2075,-0.2075,-0.2075,-0.2241,-0.2246,-0.2251,0,0,0,0,0,0,0,0,0,0,0,0,0,-0.1974,-0.1939,-0.1969,-0.1996,-0.1999,-0.2032,-0.2033,-0.2035,-0.2075,-0.2075,-0.2075,-0.2075,-0.2239,-0.2245,-0.2252,-0.2291,0,0,-0.2272,-0.2275,0,0,0,0,0,0,0,0,-0.1972,-0.1975,-0.1992,-0.1995,-0.1998,-0.2044,-0.2084,-0.2125,-0.2075,-0.2049,-0.2075,-0.2075,-0.2184,-0.2195,-0.2209,-0.2299,-0.2306,-0.2273,-0.2277,-0.228,-0.2281,0,0,0,0,0,0,0,-0.1969,-0.1973,-0.1997,-0.1992,-0.1996,-0.2024,-0.2029,-0.2092,-0.2119,-0.2051,-0.2054,-0.2057,-0.2187,-0.2202,-0.2213,-0.2309,-0.2273,-0.2278,-0.2283,-0.2285,-0.2418,-0.2418,0,0,0,0,0,0,-0.1954,-0.1971,-0.1995,-0.1998,-0.1982,-0.2024,-0.203,-0.2031,-0.2116,-0.2128,-0.2057,-0.2058,-0.2191,-0.2205,-0.2219,-0.2235,-0.228,-0.2286,-0.229,-0.2419,-0.2418,-0.2418,0,0,0,0,0,0,-0.1953,-0.1955,-0.1992,-0.1984,-0.199,-0.2024,-0.2025,-0.2032,-0.2068,-0.2119,-0.2133,-0.2087,-0.2191,-0.221,-0.231,-0.2243,-0.2289,-0.2295,-0.2419,-0.2419,-0.2418,-0.2289,0,0,0,0,0,0,-0.1952,-0.1955,-0.196,-0.1983,-0.199,-0.1999,-0.2025,-0.2033,-0.2067,-0.2071,-0.215,-0.2164,-0.2193,-0.2301,-0.2317,-0.2253,-0.23,-0.242,-0.2419,-0.2418,-0.2294,-0.2284,-0.2276,0,0,0,0,0,-0.1951,-0.1954,-0.196,-0.1964,-0.1993,-0.1999,-0.2005,-0.2031,-0.2069,-0.2069,-0.2157,-0.2162,-0.2304,-0.2308,-0.2327,-0.2262,-0.242,-0.2419,-0.2418,-0.2298,-0.2286,-0.2276,0,0,0,0,0,0,-0.1946,-0.1959,-0.1966,-0.1974,-0.1979,-0.2004,-0.2016,-0.2046,-0.2114,-0.2132,-0.2201,-0.2222,-0.2263,-0.2309,-0.2312,-0.2299,-0.2345,-0.2348,-0.2247,-0.2237,-0.2228,-0.2242,-0.2305,0,0,0,0,0,-0.1945,-0.1952,-0.196,-0.1967,-0.1969,-0.2001,-0.2016,-0.2027,-0.2083,-0.2112,-0.2172,-0.2233,-0.2269,-0.2297,-0.234,-0.2372,-0.245,-0.2332,-0.2322,-0.2314,-0.234,-0.25,-0.2509,-0.2415,-0.2415,-0.2415,0,0,-0.1948,-0.1955,-0.1961,-0.1967,-0.198,-0.1968,-0.2011,-0.2021,-0.2015,-0.2123,-0.2164,-0.2219,-0.2278,-0.2289,-0.2306,-0.2322,-0.2353,-0.2313,-0.2305,-0.2337,-0.25,-0.251,-0.2519,-0.2414,-0.2414,-0.2414,0,0,-0.194,-0.1958,-0.1953,-0.1948,-0.1952,-0.1961,-0.1968,-0.1996,-0.201,-0.2056,-0.2115,-0.217,-0.2228,-0.2251,-0.2271,-0.2257,-0.2309,-0.2228,-0.2188,-0.2341,-0.2351,-0.2361,-0.2349,-0.236,-0.2215,-0.2214,-0.2214,0,-0.1938,-0.1929,-0.1951,-0.1932,-0.1928,-0.1957,-0.1939,-0.1947,-0.2007,-0.2041,-0.2049,-0.2184,-0.2204,-0.2254,-0.2203,-0.2231,-0.2293,-0.2214,-0.2331,-0.2344,-0.2357,-0.2344,-0.2358,-0.2208,-0.2209,-0.2209,-0.221,0,-0.1911,-0.1903,-0.1898,-0.188,-0.1881,-0.1868,-0.1869,-0.1891,-0.1921,-0.1947,-0.2022,-0.2089,-0.219,-0.214,-0.2152,-0.2219,-0.2216,-0.2307,-0.2358,-0.2359,-0.2343,-0.2359,-0.2199,-0.2201,-0.2203,-0.2205,0,0,-0.1882,-0.1881,-0.1871,-0.1865,-0.185,-0.1849,-0.184,-0.1855,-0.1915,-0.1931,-0.2043,-0.2015,-0.2104,-0.2136,-0.2171,-0.2238,-0.2285,-0.2283,-0.2294,-0.2265,-0.2523,-0.2198,-0.2184,-0.2424,-0.2429,-0.2433,-0.243,0,-0.1843,-0.181,-0.1817,-0.1786,-0.1769,-0.1793,-0.1797,-0.182,-0.1884,-0.2002,-0.2052,-0.217,-0.2086,-0.2176,-0.2219,-0.2321,-0.2345,-0.2271,-0.2534,-0.2539,-0.2251,-0.22,-0.2038,-0.1999,-0.2447,-0.245,-0.2452,0,-0.1789,-0.1779,-0.1742,-0.1762,-0.176,-0.1747,-0.1817,-0.1827,-0.1961,-0.2046,-0.2171,-0.2281,-0.2354,-0.2352,-0.2457,-0.2425,-0.2451,-0.2489,-0.2494,-0.2268,-0.2249,-0.2098,-0.2013,-0.2481,-0.2479,-0.2476,-0.2475,0,-0.1746,-0.1725,-0.1703,-0.1694,-0.1713,-0.1719,-0.1738,-0.1834,-0.1924,-0.213,-0.2275,-0.2398,-0.2507,-0.26,-0.2549,-0.2581,-0.2661,-0.2755,-0.2462,-0.2435,-0.2385,-0.2343,-0.287,-0.287,-0.287,-0.287,-0.287,0,-0.1689,-0.1669,-0.1682,-0.1663,-0.166,-0.1691,-0.1775,-0.1824,-0.2036,-0.2161,-0.2313,-0.2426,-0.2595,-0.2635,-0.2623,-0.2492,-0.2718,-0.2427,-0.2434,-0.231,-0.2264,-0.2796,-0.2788,-0.287,-0.287,-0.287,-0.287,0,-0.1623,-0.1636,-0.1602,-0.1618,-0.163,-0.1618,-0.1776,-0.1913,-0.2051,-0.2258,-0.235,-0.2503,-0.2466,-0.2506,-0.2607,-0.2528,-0.2503,-0.2407,-0.212,-0.2089,-0.2163,-0.2149,-0.2163,-0.2152,-0.2143,-0.2135,-0.2128,0,-0.1586,-0.1562,-0.1546,-0.1582,-0.1583,-0.1634,-0.174,-0.1894,-0.2053,-0.2226,-0.233,-0.2365,-0.2274,-0.2177,-0.2098,-0.1991,-0.217,-0.1811,-0.1839,-0.2095,-0.2103,-0.2103,-0.2101,-0.17,-0.169,-0.1682,-0.1676,0,-0.1502,-0.1488,-0.1462,-0.1527,-0.1605,-0.1725,-0.1851,-0.1959,-0.2143,-0.2205,-0.2172,-0.2087,-0.1931,-0.1676,-0.1519,-0.1467,-0.1816,-0.1636,-0.2111,-0.1839,-0.1642,-0.1653,-0.1672,-0.1607,-0.1613,-0.1619,-0.1622,-0.1625,-0.1433,-0.1388,-0.1397,-0.1451,-0.1583,-0.1749,-0.1764,-0.1901,-0.1944,-0.1918,-0.1909,-0.1655,-0.1615,-0.1195,-0.1087,-0.1046,-0.1195,-0.1244,-0.1279,-0.132,-0.1203,-0.0995,-0.0808,-0.081,-0.0812,-0.0814,-0.0815,0,-0.1359,-0.1341,-0.1381,-0.142,-0.1538,-0.1654,-0.1813,-0.1761,-0.1627,-0.1607,-0.1414,-0.1132,-0.0891,-0.0853,-0.0651,-0.0595,-0.073,-0.0599,-0.0827,-0.0889,-0.0947,-0.0824,-0.0322,-0.0322,-0.0321,-0.032,0,0,-0.1327,-0.1304,-0.1304,-0.1358,-0.1421,-0.1429,-0.1455,-0.1351,-0.1272,-0.0997,-0.0836,-0.0834,-0.0807,-0.0604,-0.0523,-0.0388,-0.0661,-0.0356,-0.074,-0.107,-0.1128,-0.128,-0.1149,0,0,0,0,0]},{"header":{"parameterUnit":"m.s-1","parameterCategory":2,"la1":30.2991,"la2":30.254,"lo1":-89.0895,"lo2":-89.0444,"dy":0.0017,"dx":0.0017,"nx":28,"ny":28,"refTime":"2025-05-31T21:00:00:Z","depth":"2","parameterNumber":3,"parameterNumberName":"V-component_of_CURRENTS"},"data":[0,0,0,0,0,0,0,0,0,0,0,0,0,0,0,0,0,0,0,0,0,0,0,0,0,0,0,0,0,0,0,0,0,0,0,0,0,0,0,0,0,0,0,0,0,0,0,0,0,0,0,0,0,0,0,0,0,0,-0.0211,-0.0209,0,-0.0038,-0.0036,-0.0034,0.009,0.0091,0.0092,0.0093,0.0418,0.0426,0.0434,0,0,0,0,0,0,0,0,0,0,0,0,0,-0.0277,-0.0277,-0.0211,-0.0209,-0.0207,-0.0039,-0.0036,-0.0033,0.009,0.0091,0.0092,0.0093,0.0415,0.0425,0.0434,0,0,0,0,0,0,0,0,0,0,0,0,0,-0.0188,-0.0277,-0.0211,-0.0128,-0.0119,-0.0039,-0.0036,-0.0033,0.009,0.0091,0.0092,0.0093,0.0412,0.0424,0.0436,0.0487,0,0,0.0472,0.0477,0,0,0,0,0,0,0,0,-0.0194,-0.0186,-0.0142,-0.0133,-0.0123,0.0003,0.006,0.0148,0.009,0.0014,0.0093,0.0094,0.0291,0.0312,0.0345,0.0503,0.0517,0.0473,0.0481,0.0486,0.0489,0,0,0,0,0,0,0,-0.02,-0.0192,-0.0139,-0.014,-0.0129,-0.0045,-0.0032,0.0078,0.0149,0.0021,0.003,0.0043,0.0297,0.0333,0.0354,0.0522,0.0473,0.0484,0.0491,0.0496,0.0772,0.0772,0,0,0,0,0,0,-0.0238,-0.0199,-0.0145,-0.0135,-0.016,-0.0046,-0.0031,-0.0036,0.0145,0.0172,0.0042,0.0048,0.0312,0.034,0.0366,0.0434,0.0486,0.0497,0.0504,0.0772,0.0772,0.0772,0,0,0,0,0,0,-0.024,-0.0235,-0.0152,-0.0163,-0.0147,-0.0048,-0.0053,-0.0033,0.0015,0.0159,0.019,0.0071,0.0314,0.0349,0.0503,0.0448,0.0502,0.0513,0.0771,0.0772,0.0772,0.0574,0,0,0,0,0,0,-0.0243,-0.0238,-0.0249,-0.0167,-0.0148,-0.011,-0.0053,-0.0031,0.0019,0.0029,0.0194,0.0224,0.0317,0.0485,0.0515,0.0466,0.0522,0.0771,0.0771,0.0772,0.0581,0.0568,0.0557,0,0,0,0,0,-0.0246,-0.0268,-0.0251,-0.0243,-0.017,-0.011,-0.0093,-0.0014,0.0019,0.0035,0.0174,0.022,0.0505,0.0497,0.0532,0.0484,0.0771,0.0771,0.0772,0.0586,0.057,0.0557,0,0,0,0,0,0,-0.0296,-0.0255,-0.0235,-0.0241,-0.0185,-0.0091,-0.0074,-0.0018,0.0098,0.0117,0.0259,0.03,0.041,0.0491,0.0477,0.0567,0.063,0.0638,0.0477,0.0464,0.0452,0.0431,0.0532,0,0,0,0,0,-0.0319,-0.0325,-0.0264,-0.0266,-0.0251,-0.0164,-0.0128,-0.0076,0.0031,0.0081,0.0197,0.0321,0.0433,0.0487,0.0608,0.067,0.0733,0.0654,0.0642,0.0631,0.064,0.0718,0.0712,0.0773,0.0773,0.0773,0,0,-0.0336,-0.0316,-0.0317,-0.0277,-0.0232,-0.02,-0.0139,-0.0097,-0.0059,0.0102,0.0196,0.0307,0.0454,0.0528,0.0576,0.0587,0.0636,0.0631,0.062,0.0637,0.0717,0.0711,0.0706,0.0773,0.0773,0.0773,0,0,-0.0368,-0.0365,-0.0374,-0.0336,-0.0281,-0.0231,-0.0223,-0.0133,-0.0089,0.0014,0.0132,0.0224,0.0389,0.0467,0.0532,0.0532,0.0592,0.0542,0.0439,0.0511,0.0506,0.0503,0.051,0.0509,0.0507,0.0506,0.0506,0,-0.039,-0.0391,-0.0363,-0.035,-0.032,-0.0251,-0.0233,-0.0183,-0.0047,-0.0012,0.0024,0.0247,0.0356,0.0444,0.0431,0.0498,0.0537,0.0469,0.0491,0.049,0.0489,0.0499,0.05,0.0497,0.0498,0.0499,0.05,0,-0.0412,-0.0408,-0.0412,-0.038,-0.0347,-0.0323,-0.026,-0.0223,-0.017,-0.011,-0.0013,0.013,0.0249,0.0267,0.0354,0.0385,0.0408,0.0481,0.0511,0.047,0.0484,0.0488,0.0483,0.0487,0.049,0.0492,0,0,-0.0468,-0.0437,-0.0434,-0.0423,-0.036,-0.0337,-0.0303,-0.0249,-0.0239,-0.0145,-0.0108,0.0031,0.0075,0.0153,0.0238,0.0281,0.0279,0.0353,0.0361,0.033,0.0389,0.0441,0.0452,0.035,0.0351,0.0352,0.0373,0,-0.0487,-0.0483,-0.0454,-0.0436,-0.0426,-0.037,-0.0348,-0.0294,-0.025,-0.0202,-0.0107,-0.0031,0.0036,0.0065,0.0121,0.0287,0.0295,0.0264,0.0464,0.0468,0.0496,0.0462,0.0398,0.0418,0.0379,0.038,0.038,0,-0.0509,-0.0501,-0.0496,-0.0472,-0.0467,-0.045,-0.0422,-0.0392,-0.0327,-0.0303,-0.0242,-0.0152,-0.0063,-0.0006,0.0176,0.0153,0.0241,0.0338,0.0343,0.0477,0.0534,0.0472,0.043,0.039,0.0389,0.0388,0.0388,0,-0.0554,-0.053,-0.0534,-0.0518,-0.0481,-0.048,-0.0464,-0.0421,-0.0431,-0.0371,-0.0362,-0.0243,-0.0158,-0.003,0.0175,0.0165,0.0387,0.0402,0.051,0.0512,0.0546,0.055,0.0496,0.0496,0.0496,0.0496,0.0496,0,-0.0583,-0.0583,-0.0561,-0.056,-0.0575,-0.0533,-0.0572,-0.0538,-0.053,-0.0516,-0.0424,-0.0352,-0.015,0.0013,0.0149,0.0364,0.0362,0.0492,0.0537,0.047,0.0468,0.0541,0.0546,0.0497,0.0497,0.0496,0.0496,0,-0.0616,-0.0609,-0.0605,-0.0587,-0.0597,-0.0602,-0.0656,-0.0708,-0.0661,-0.0634,-0.062,-0.0431,-0.0188,0.0002,0.026,0.0353,0.0533,0.06,0.048,0.0513,0.0586,0.0581,0.0667,0.0669,0.0671,0.0673,0.0675,0,-0.0631,-0.0637,-0.0631,-0.068,-0.0679,-0.0717,-0.0785,-0.0778,-0.0806,-0.0644,-0.0612,-0.038,-0.0146,0.0219,0.0398,0.0597,0.0634,0.0636,0.0616,0.0576,0.0611,0.0602,0.0595,0.0539,0.0539,0.054,0.054,0,-0.0639,-0.0637,-0.0627,-0.0748,-0.0821,-0.0898,-0.0944,-0.0963,-0.0902,-0.0805,-0.0556,-0.0343,0.0013,0.0285,0.0527,0.063,0.0595,0.0646,0.0671,0.0527,0.0465,0.0496,0.0491,0.0541,0.0541,0.0541,0.0541,0.0541,-0.0634,-0.0635,-0.0684,-0.0796,-0.091,-0.1016,-0.1042,-0.1029,-0.0961,-0.0728,-0.0505,-0.0159,0.0036,0.0411,0.0569,0.0662,0.0666,0.0664,0.0659,0.0655,0.0659,0.0607,0.0704,0.0705,0.0706,0.0706,0.0707,0,-0.0636,-0.0675,-0.0777,-0.0886,-0.1044,-0.1096,-0.1129,-0.1096,-0.0925,-0.0652,-0.0364,-0.0098,0.0192,0.0399,0.054,0.0646,0.0596,0.0667,0.0572,0.057,0.0569,0.0564,0.0586,0.0587,0.0587,0.0587,0,0,-0.0644,-0.0727,-0.0788,-0.1,-0.11,-0.121,-0.1201,-0.1067,-0.0859,-0.0522,-0.0274,-0.0012,0.0239,0.0299,0.0432,0.0534,0.0527,0.0531,0.0612,0.0484,0.0482,0.0548,0.0538,0,0,0,0,0]}],[{"header":{"parameterUnit":"m.s-1","parameterCategory":2,"la1":30.2991,"la2":30.254,"lo1":-89.0895,"lo2":-89.0444,"dy":0.0017,"dx":0.0017,"nx":28,"ny":28,"refTime":"2025-05-31T21:00:00:Z","depth":"4","parameterNumber":2,"parameterNumberName":"U-component_of_CURRENTS"},"data":[0,0,0,0,0,0,0,0,0,0,0,0,0,0,0,0,0,0,0,0,0,0,0,0,0,0,0,0,0,0,0,0,0,0,0,0,0,0,0,0,0,0,0,0,0,0,0,0,0,0,0,0,0,0,0,0,0,0,-0.1278,-0.1278,0,-0.1274,-0.1274,-0.1274,-0.1246,-0.1246,-0.1246,-0.1245,-0.1226,-0.1225,-0.1225,0,0,0,0,0,0,0,0,0,0,0,0,0,-0.1293,-0.1292,-0.1278,-0.1278,-0.1278,-0.1274,-0.1274,-0.1274,-0.1246,-0.1246,-0.1245,-0.1245,-0.1226,-0.1225,-0.1225,0,0,0,0,0,0,0,0,0,0,0,0,0,-0.1284,-0.1292,-0.1277,-0.1266,-0.1266,-0.1274,-0.1274,-0.1273,-0.1246,-0.1246,-0.1245,-0.1245,-0.1226,-0.1225,-0.1225,-0.1235,0,0,-0.1224,-0.1224,0,0,0,0,0,0,0,0,-0.1285,-0.1283,-0.1268,-0.1267,-0.1266,-0.1263,-0.1272,-0.1261,-0.1247,-0.125,-0.1245,-0.1245,-0.1239,-0.1238,-0.1234,-0.1234,-0.1233,-0.1224,-0.1224,-0.1224,-0.1224,0,0,0,0,0,0,0,-0.1285,-0.1284,-0.1273,-0.1268,-0.1267,-0.1273,-0.1271,-0.127,-0.1245,-0.125,-0.1249,-0.1254,-0.1238,-0.1234,-0.1233,-0.1233,-0.1224,-0.1224,-0.1224,-0.1224,-0.1219,-0.1219,0,0,0,0,0,0,-0.1291,-0.1284,-0.1273,-0.1273,-0.1278,-0.1273,-0.127,-0.1262,-0.1245,-0.1243,-0.1254,-0.1253,-0.1235,-0.1234,-0.1232,-0.1262,-0.1224,-0.1224,-0.1224,-0.1219,-0.1219,-0.1219,0,0,0,0,0,0,-0.1291,-0.129,-0.1273,-0.1282,-0.1281,-0.1274,-0.1265,-0.1262,-0.1274,-0.1249,-0.1246,-0.1271,-0.1234,-0.1233,-0.1236,-0.126,-0.1224,-0.1223,-0.1219,-0.1219,-0.1219,-0.1309,0,0,0,0,0,0,-0.1291,-0.1289,-0.1298,-0.1282,-0.128,-0.1282,-0.1265,-0.1263,-0.1279,-0.1277,-0.1262,-0.1259,-0.1234,-0.1236,-0.1236,-0.1259,-0.1223,-0.1219,-0.1219,-0.1219,-0.1306,-0.1313,-0.1318,0,0,0,0,0,-0.1292,-0.1298,-0.1298,-0.1298,-0.1287,-0.1283,-0.1282,-0.1274,-0.128,-0.1283,-0.1274,-0.126,-0.1235,-0.1237,-0.1236,-0.126,-0.1219,-0.1219,-0.1219,-0.1304,-0.1311,-0.1318,0,0,0,0,0,0,-0.131,-0.1295,-0.1295,-0.1297,-0.1295,-0.1279,-0.1292,-0.1291,-0.1288,-0.1295,-0.127,-0.1265,-0.1272,-0.1251,-0.1253,-0.1253,-0.1222,-0.1222,-0.1287,-0.1293,-0.1299,-0.1295,-0.1223,0,0,0,0,0,-0.132,-0.1322,-0.1308,-0.1316,-0.1317,-0.1313,-0.1318,-0.1312,-0.1305,-0.1305,-0.1295,-0.1281,-0.127,-0.1271,-0.1251,-0.1267,-0.1234,-0.1275,-0.1281,-0.1286,-0.1279,-0.1261,-0.1265,-0.122,-0.122,-0.122,0,0,-0.1338,-0.1328,-0.1334,-0.1322,-0.1324,-0.1328,-0.1314,-0.1326,-0.1337,-0.1304,-0.1322,-0.1305,-0.1275,-0.128,-0.1281,-0.127,-0.128,-0.1286,-0.1291,-0.1281,-0.1262,-0.1266,-0.127,-0.122,-0.122,-0.122,0,0,-0.1357,-0.136,-0.1361,-0.1361,-0.1364,-0.136,-0.137,-0.1364,-0.1369,-0.1382,-0.1357,-0.1353,-0.1346,-0.1324,-0.1313,-0.134,-0.1308,-0.1338,-0.1375,-0.1359,-0.1363,-0.1366,-0.1331,-0.1331,-0.1346,-0.1347,-0.1347,0,-0.1376,-0.137,-0.1366,-0.1365,-0.1373,-0.1378,-0.1385,-0.1394,-0.1392,-0.1397,-0.1396,-0.1379,-0.1363,-0.136,-0.1366,-0.1356,-0.1334,-0.136,-0.1369,-0.1371,-0.1373,-0.1336,-0.1334,-0.1351,-0.1351,-0.135,-0.135,0,-0.1384,-0.1391,-0.1397,-0.1395,-0.1406,-0.1416,-0.1424,-0.1441,-0.1457,-0.1455,-0.1463,-0.1442,-0.1421,-0.1428,-0.141,-0.1414,-0.139,-0.1379,-0.1359,-0.1384,-0.1342,-0.1339,-0.1357,-0.1356,-0.1354,-0.1353,0,0,-0.1372,-0.1396,-0.1397,-0.1405,-0.1421,-0.1424,-0.146,-0.1471,-0.1486,-0.1501,-0.1506,-0.1505,-0.149,-0.1474,-0.1455,-0.1455,-0.1456,-0.1432,-0.1429,-0.1409,-0.1409,-0.1342,-0.1331,-0.1457,-0.1457,-0.1456,-0.1377,0,-0.1372,-0.1384,-0.1396,-0.142,-0.1424,-0.145,-0.1476,-0.1496,-0.1511,-0.1519,-0.1519,-0.1508,-0.1509,-0.1497,-0.1502,-0.1454,-0.145,-0.1477,-0.1376,-0.1372,-0.1321,-0.1326,-0.1456,-0.1374,-0.1373,-0.1372,-0.1372,0,-0.1351,-0.1364,-0.1388,-0.1421,-0.1427,-0.1447,-0.1482,-0.1502,-0.1523,-0.1533,-0.1538,-0.1523,-0.1513,-0.1512,-0.1467,-0.1486,-0.1453,-0.143,-0.1426,-0.1327,-0.1298,-0.134,-0.1364,-0.1365,-0.1365,-0.1366,-0.1366,0,-0.1318,-0.1349,-0.1372,-0.1383,-0.1426,-0.1447,-0.147,-0.1502,-0.1506,-0.1526,-0.1518,-0.152,-0.1489,-0.1476,-0.1435,-0.1445,-0.1385,-0.1383,-0.1293,-0.1287,-0.1334,-0.1331,-0.1355,-0.1355,-0.1355,-0.1356,-0.1356,0,-0.1284,-0.1301,-0.136,-0.1368,-0.1382,-0.1428,-0.1439,-0.1467,-0.1488,-0.1471,-0.1507,-0.1481,-0.148,-0.1447,-0.1429,-0.1342,-0.1372,-0.1288,-0.1263,-0.1372,-0.1374,-0.1331,-0.1329,-0.1353,-0.1353,-0.1354,-0.1354,0,-0.1227,-0.1275,-0.1292,-0.1348,-0.1361,-0.1366,-0.1396,-0.1396,-0.1438,-0.1412,-0.1411,-0.1425,-0.138,-0.1379,-0.1333,-0.1298,-0.1248,-0.1216,-0.1322,-0.1305,-0.116,-0.1164,-0.1085,-0.1082,-0.1079,-0.1077,-0.1076,0,-0.1195,-0.1206,-0.1257,-0.1259,-0.128,-0.1297,-0.1299,-0.135,-0.134,-0.1362,-0.133,-0.1312,-0.1309,-0.1184,-0.1216,-0.1168,-0.1166,-0.1129,-0.1157,-0.1149,-0.1133,-0.114,-0.1147,-0.1071,-0.1071,-0.107,-0.1069,0,-0.1128,-0.116,-0.1175,-0.1177,-0.1181,-0.1171,-0.118,-0.116,-0.1203,-0.1256,-0.1201,-0.1178,-0.1128,-0.111,-0.1083,-0.1061,-0.1149,-0.1102,-0.1107,-0.1133,-0.1132,-0.112,-0.113,-0.1061,-0.1062,-0.1063,-0.1063,0,-0.1077,-0.1063,-0.109,-0.1077,-0.1081,-0.1037,-0.1051,-0.1033,-0.103,-0.1073,-0.1052,-0.1063,-0.1097,-0.1052,-0.1036,-0.1004,-0.0988,-0.0959,-0.0971,-0.0982,-0.0992,-0.0978,-0.0825,0,0,0,0,0,-0.1021,-0.1001,-0.0987,-0.0957,-0.0958,-0.0952,-0.0971,-0.0993,-0.1035,-0.096,-0.1004,-0.0964,-0.0931,-0.0955,-0.0897,-0.0992,-0.0995,-0.0923,-0.097,-0.1011,-0.1022,-0.1047,0,0,0,0,0,0,-0.0983,-0.0976,-0.0956,-0.0865,-0.0824,-0.0794,-0.08,-0.0827,-0.0797,-0.086,-0.0846,-0.0906,-0.0891,-0.0939,-0.0875,-0.0881,-0.0891,-0.0949,-0.0947,-0.1006,-0.1015,-0.1023,-0.1053,0,0,0,0,0]},{"header":{"parameterUnit":"m.s-1","parameterCategory":2,"la1":30.2991,"la2":30.254,"lo1":-89.0895,"lo2":-89.0444,"dy":0.0017,"dx":0.0017,"nx":28,"ny":28,"refTime":"2025-05-31T21:00:00:Z","depth":"4","parameterNumber":3,"parameterNumberName":"V-component_of_CURRENTS"},"data":[0,0,0,0,0,0,0,0,0,0,0,0,0,0,0,0,0,0,0,0,0,0,0,0,0,0,0,0,0,0,0,0,0,0,0,0,0,0,0,0,0,0,0,0,0,0,0,0,0,0,0,0,0,0,0,0,0,0,-0.0189,-0.0188,0,-0.0139,-0.0139,-0.0138,-0.011,-0.011,-0.011,-0.011,-0.0078,-0.0077,-0.0077,0,0,0,0,0,0,0,0,0,0,0,0,0,-0.0201,-0.0201,-0.0189,-0.0188,-0.0188,-0.0139,-0.0139,-0.0138,-0.011,-0.011,-0.011,-0.011,-0.0078,-0.0078,-0.0077,0,0,0,0,0,0,0,0,0,0,0,0,0,-0.0179,-0.0201,-0.0189,-0.0167,-0.0164,-0.0139,-0.0139,-0.0138,-0.0111,-0.011,-0.011,-0.011,-0.0079,-0.0078,-0.0077,-0.0077,0,0,-0.0074,-0.0073,0,0,0,0,0,0,0,0,-0.018,-0.0179,-0.0171,-0.0168,-0.0165,-0.0129,-0.0131,-0.0118,-0.0111,-0.0132,-0.011,-0.0109,-0.0096,-0.0094,-0.0087,-0.0075,-0.0074,-0.0074,-0.0073,-0.0073,-0.0072,0,0,0,0,0,0,0,-0.0182,-0.018,-0.0171,-0.017,-0.0167,-0.0139,-0.0136,-0.0128,-0.0118,-0.013,-0.0128,-0.012,-0.0095,-0.0088,-0.0086,-0.0073,-0.0074,-0.0073,-0.0072,-0.0072,-0.0047,-0.0047,0,0,0,0,0,0,-0.0189,-0.0182,-0.0172,-0.0169,-0.0171,-0.0139,-0.0136,-0.0142,-0.0118,-0.0113,-0.0121,-0.0119,-0.009,-0.0087,-0.0085,-0.0045,-0.0073,-0.0072,-0.0071,-0.0047,-0.0047,-0.0047,0,0,0,0,0,0,-0.019,-0.0189,-0.0174,-0.0172,-0.0168,-0.0139,-0.0147,-0.0142,-0.0133,-0.011,-0.0106,-0.0117,-0.0089,-0.0086,-0.0066,-0.0045,-0.0071,-0.007,-0.0047,-0.0047,-0.0047,0.001,0,0,0,0,0,0,-0.0191,-0.019,-0.02,-0.0174,-0.0169,-0.0161,-0.0147,-0.0141,-0.0128,-0.0126,-0.0106,-0.0102,-0.0089,-0.0067,-0.0065,-0.0044,-0.007,-0.0047,-0.0047,-0.0047,0.0008,0.0012,0.0015,0,0,0,0,0,-0.0191,-0.0211,-0.0201,-0.02,-0.0183,-0.016,-0.0156,-0.0134,-0.0129,-0.0126,-0.0103,-0.0103,-0.0065,-0.0066,-0.0063,-0.0042,-0.0047,-0.0047,-0.0047,0.0006,0.0011,0.0015,0,0,0,0,0,0,-0.0224,-0.0209,-0.0198,-0.0213,-0.0186,-0.0155,-0.0157,-0.0137,-0.0118,-0.0118,-0.0096,-0.0091,-0.0067,-0.0071,-0.0072,-0.0038,-0.0059,-0.0058,-0.002,-0.0015,-0.0012,-0.0026,-0.0069,0,0,0,0,0,-0.0235,-0.0245,-0.0215,-0.0225,-0.0218,-0.0187,-0.0177,-0.0157,-0.0134,-0.0126,-0.0105,-0.0089,-0.0065,-0.0053,-0.0042,-0.0021,-0.0015,-0.0011,-0.0007,-0.0004,-0.0016,0.0035,0.0043,-0.0046,-0.0046,-0.0046,0,0,-0.025,-0.0242,-0.0248,-0.0232,-0.0216,-0.0196,-0.0181,-0.0168,-0.0141,-0.0127,-0.0095,-0.0077,-0.006,-0.0029,-0.002,-0.0026,0.0024,-0.0003,-0.0,-0.0015,0.0036,0.0045,0.0053,-0.0046,-0.0046,-0.0046,0,0,-0.0275,-0.0279,-0.0288,-0.0266,-0.0239,-0.0214,-0.021,-0.0174,-0.0153,-0.0119,-0.0096,-0.0063,-0.0041,-0.0006,0.001,0.0035,0.0039,0.0029,0.0046,0.0097,0.0105,0.0113,0.0134,0.0143,0.0036,0.0036,0.0036,0,-0.0292,-0.0293,-0.0285,-0.0275,-0.0255,-0.0221,-0.0206,-0.0178,-0.0134,-0.0113,-0.011,-0.0047,-0.0026,0.003,0.0043,0.0047,0.006,0.0037,0.0105,0.0112,0.0119,0.0139,0.0148,0.0039,0.0039,0.0038,0.0038,0,-0.0308,-0.0303,-0.0307,-0.0281,-0.026,-0.0244,-0.0198,-0.0175,-0.0146,-0.0108,-0.0058,-0.0016,0.0018,0.004,0.0052,0.0111,0.0099,0.0106,0.0101,0.0132,0.015,0.0158,0.0043,0.0042,0.0041,0.004,0,0,-0.0352,-0.0324,-0.0323,-0.0303,-0.0258,-0.0242,-0.0204,-0.0155,-0.0134,-0.0077,-0.0039,0.0027,0.0045,0.0062,0.0093,0.0144,0.0215,0.0142,0.0144,0.0174,0.0307,0.0249,0.0252,0.0241,0.0242,0.0244,0.0302,0,-0.0358,-0.0344,-0.0325,-0.0295,-0.0275,-0.0235,-0.0206,-0.0158,-0.0117,-0.0075,-0.0009,0.0029,0.0057,0.0074,0.0136,0.0185,0.0238,0.0196,0.026,0.0261,0.0217,0.0261,0.0249,0.0308,0.031,0.0312,0.0313,0,-0.037,-0.0351,-0.0334,-0.0291,-0.0284,-0.0265,-0.0217,-0.0185,-0.0119,-0.0091,-0.0032,0.0008,0.0089,0.0103,0.0223,0.0193,0.0248,0.0293,0.0297,0.0224,0.0219,0.0268,0.0328,0.0327,0.0326,0.0325,0.0324,0,-0.0389,-0.0354,-0.0341,-0.0324,-0.0277,-0.0267,-0.0244,-0.0191,-0.0173,-0.0105,-0.009,0.001,0.0048,0.0143,0.0224,0.0231,0.0341,0.0366,0.0369,0.0365,0.0375,0.0367,0.0456,0.0456,0.0456,0.0456,0.0456,0,-0.0393,-0.038,-0.0352,-0.0342,-0.0326,-0.029,-0.0279,-0.0244,-0.0207,-0.0188,-0.0106,-0.0071,0.006,0.0135,0.0221,0.0303,0.0342,0.037,0.0382,0.0395,0.0388,0.0382,0.0372,0.0458,0.0458,0.0457,0.0457,0,-0.0407,-0.0396,-0.0374,-0.034,-0.0337,-0.0324,-0.0313,-0.0315,-0.027,-0.0245,-0.0228,-0.0126,-0.0028,0.0083,0.0227,0.028,0.0375,0.0395,0.0373,0.0383,0.0369,0.0362,0.0422,0.0421,0.0419,0.0418,0.0417,0,-0.0408,-0.0404,-0.0383,-0.0393,-0.0382,-0.0371,-0.0386,-0.035,-0.0351,-0.0278,-0.0272,-0.0174,-0.01,0.0051,0.0179,0.0324,0.0346,0.0383,0.0408,0.0363,0.0369,0.0363,0.0358,0.0416,0.0415,0.0415,0.0415,0,-0.0399,-0.0406,-0.0391,-0.0423,-0.0442,-0.0455,-0.0462,-0.0464,-0.0427,-0.0382,-0.0314,-0.0216,-0.0112,0.0031,0.0124,0.024,0.0355,0.0371,0.0376,0.04,0.0356,0.0362,0.0358,0.041,0.0411,0.0411,0.0412,0,-0.0398,-0.0396,-0.0414,-0.0445,-0.0486,-0.0537,-0.0523,-0.0519,-0.0505,-0.0418,-0.0392,-0.0254,-0.0158,-0.0012,0.0085,0.0173,0.0217,0.0249,0.0261,0.0267,0.0201,0.0121,0.0115,0,0,0,0,0,-0.0383,-0.0414,-0.0447,-0.0491,-0.0548,-0.0578,-0.0586,-0.057,-0.0521,-0.0491,-0.0441,-0.034,-0.0173,-0.008,-0.0002,0.0067,0.0224,0.016,0.0263,0.0387,0.0392,0.0336,0,0,0,0,0,0,-0.0383,-0.041,-0.0446,-0.0548,-0.0599,-0.0662,-0.0671,-0.0634,-0.06,-0.0526,-0.0434,-0.0346,-0.0181,-0.0233,-0.0012,0.0022,0.0093,0.0257,0.0258,0.0384,0.0389,0.0393,0.0337,0,0,0,0,0]}]]